Estherville, IA

2:46 AM CDT on October 24, 2017 (GMT -0500)
Estherville Municipal

Weather History for KEST - December, 2012

Change the Weather History Date:

Monday, December 3, 2012

  Actual Average Record
Temperature  
Mean Temperature 46 °F 23 °F  
Max Temperature 58 °F 32 °F 63 °F (1998)
Min Temperature 33 °F 14 °F -15 °F (1985)
Degree Days  
Heating Degree Days 19 42  
Month to date heating degree days 66 124  
Since 1 July heating degree days 1672 1843  
Cooling Degree Days 0 0  
Month to date cooling degree days 0 0  
Year to date cooling degree days 886 593  
Moisture  
Dew Point 41 °F    
Average Humidity 75    
Maximum Humidity 100    
Minimum Humidity 50    
Precipitation  
Precipitation 0.00 in 0.05 in 0.25 in (1953)
Month to date precipitation 0.00 0.15  
Sea Level Pressure  
Sea Level Pressure 29.74 in    
Wind  
Wind Speed 16 mph (SW)    
Max Wind Speed 30 mph    
Max Gust Speed 35 mph    
Visibility 5 miles    
Events Fog    
T = Trace of Precipitation, MM = Missing Value Source: NWS Daily Summary

Daily Weather History Graph

Daily Weather History Graph

Search for Another Location

Airport or City:

Trip Planner

Search our weather history database for the weather conditions in past years. The results will help you decide how hot, cold, wet, or windy it might be!

Date:

Astronomy

Dec. 03, 2012 Rise Set
Actual Time 7:34 AM CST 4:43 PM CST
Civil Twilight 7:02 AM CST 5:15 PM CST
Nautical Twilight 6:26 AM CST 5:51 PM CST
Astronomical Twilight 5:52 AM CST 6:25 PM CST
Moon 9:35 PM CST (12/3) 10:54 AM CST (12/3)
Length of Visible Light 10h 13m
Length of Day
9h 08m
Waning Gibbous, 78% of the Moon is Illuminated
Dec 3
Waning Gibbous
Dec 6
Last Quarter
Dec 13
New
Dec 19
First Quarter
Dec 28
Full

Hourly Weather History & Observations

Time (CST) Temp. Windchill Dew Point Humidity Pressure Visibility Wind Dir Wind Speed Gust Speed Precip Events Conditions
12:05 AM 44.6 °F 36.6 °F 42.8 °F 93% 29.78 in 0.8 mi South 19.6 mph - N/A   Mist
12:24 AM 44.6 °F 36.1 °F 42.8 °F 93% 29.77 in 1.0 mi South 21.9 mph - N/A   Overcast
12:33 AM 44.6 °F 36.4 °F 42.8 °F 93% 29.77 in 1.5 mi South 20.7 mph 27.6 mph N/A   Overcast
12:52 AM 44.1 °F 35.4 °F 42.1 °F 93% 29.77 in 1.8 mi South 21.9 mph 27.6 mph N/A   Overcast
1:03 AM 44.6 °F 36.4 °F 42.8 °F 93% 29.74 in 2.0 mi South 20.7 mph 27.6 mph N/A   Overcast
1:28 AM 44.6 °F 36.1 °F 42.8 °F 93% 29.73 in 1.5 mi SSE 21.9 mph 26.5 mph N/A   Overcast
1:43 AM 44.6 °F 37.2 °F 42.8 °F 93% 29.72 in 2.5 mi SSE 17.3 mph - N/A   Overcast
1:52 AM 44.1 °F 36.5 °F 43.0 °F 96% 29.72 in 2.5 mi South 17.3 mph - N/A   Overcast
2:18 AM 44.6 °F 36.9 °F 44.6 °F 100% 29.70 in 1.0 mi South 18.4 mph - N/A   Overcast
2:52 AM 46.0 °F 38.5 °F 45.0 °F 96% 29.71 in 0.2 mi South 19.6 mph - N/A Fog Fog
3:52 AM 46.9 °F - 46.9 °F 100% 29.67 in 0.5 mi South 18.4 mph 25.3 mph N/A Fog Fog
4:28 AM 46.4 °F 39.0 °F 46.4 °F 100% 29.65 in 1.2 mi South 19.6 mph - N/A   Overcast
4:52 AM 48.0 °F - 46.9 °F 96% 29.65 in 1.8 mi South 20.7 mph 26.5 mph N/A   Overcast
5:01 AM 48.2 °F - 46.4 °F 93% 29.64 in 2.0 mi South 17.3 mph 25.3 mph N/A   Overcast
5:20 AM 48.2 °F - 46.4 °F 93% 29.63 in 1.2 mi South 15.0 mph - N/A   Overcast
5:52 AM 48.9 °F - 48.0 °F 97% 29.62 in 0.5 mi South 16.1 mph - N/A Fog Fog
6:52 AM 50.0 °F - 48.9 °F 96% 29.59 in 0.5 mi SSE 17.3 mph 24.2 mph N/A Fog Fog
7:52 AM 51.1 °F - 51.1 °F 100% 29.59 in 0.5 mi South 17.3 mph - N/A Fog Fog
8:09 AM 51.8 °F - 51.8 °F 100% 29.58 in 1.2 mi South 15.0 mph - N/A   Overcast
8:50 AM 53.6 °F - 51.8 °F 94% 29.58 in 3.0 mi SSW 15.0 mph - N/A   Overcast
8:52 AM 54.0 °F - 52.0 °F 93% 29.60 in 3.0 mi SSW 13.8 mph 20.7 mph N/A   Overcast
9:52 AM 54.0 °F - 50.0 °F 86% 29.61 in 5.0 mi SW 16.1 mph 25.3 mph N/A   Overcast
10:52 AM 53.1 °F - 46.9 °F 80% 29.63 in 5.0 mi WSW 17.3 mph - N/A   Haze
11:26 AM 51.8 °F - 44.6 °F 76% 29.63 in 6.0 mi West 17.3 mph - N/A   Haze
11:52 AM 53.1 °F - 43.0 °F 69% 29.65 in 7.0 mi WNW 20.7 mph 26.5 mph N/A   Clear
12:52 PM 57.0 °F - 41.0 °F 55% 29.68 in 10.0 mi NNW 21.9 mph 27.6 mph N/A   Clear
1:52 PM 57.0 °F - 39.9 °F 53% 29.72 in 10.0 mi NW 20.7 mph 32.2 mph N/A   Clear
2:52 PM 55.9 °F - 37.9 °F 51% 29.76 in 10.0 mi NW 23.0 mph - N/A   Clear
3:52 PM 54.0 °F - 35.1 °F 49% 29.80 in 10.0 mi NW 20.7 mph 27.6 mph N/A   Clear
4:52 PM 48.0 °F - 30.9 °F 52% 29.85 in 10.0 mi WNW 10.4 mph - N/A   Clear
5:52 PM 45.0 °F 38.9 °F 28.9 °F 53% 29.90 in 10.0 mi West 12.7 mph - N/A   Clear
6:52 PM 43.0 °F 36.8 °F 28.0 °F 56% 29.92 in 10.0 mi WNW 11.5 mph - N/A   Clear
7:52 PM 39.9 °F 32.9 °F 26.1 °F 58% 29.94 in 10.0 mi WNW 11.5 mph - N/A   Clear
8:52 PM 37.0 °F 31.0 °F 25.0 °F 62% 29.97 in 10.0 mi WNW 8.1 mph - N/A   Clear
9:52 PM 37.9 °F 30.9 °F 24.1 °F 57% 29.99 in 10.0 mi WNW 10.4 mph - N/A   Clear
10:52 PM 36.0 °F 29.6 °F 23.0 °F 59% 30.02 in 10.0 mi West 8.1 mph - N/A   Clear
11:52 PM 36.0 °F 29.6 °F 23.0 °F 59% 30.03 in 10.0 mi West 8.1 mph - N/A   Clear